{"data":{"norad_id":59767,"epoch":"2026-05-25T01:56:01.832928Z","epoch_age_seconds":78733,"freshness":"FRESH","line1":"1 59767U 24091Q   26145.08057677  .00000857  00000+0  39367-4 0  9999","line2":"2 59767  53.1616  31.8153 0001135  94.7871 265.3260 15.31707710114704","mean_motion":15.3170771,"eccentricity":0.0001135,"inclination_deg":53.1616,"raan_deg":31.8153,"arg_perigee_deg":94.7871,"mean_anomaly_deg":265.326,"bstar":3.9367e-5,"rev_number":11470,"period_min":94.012714736547,"perigee_km":469.93966728286,"apogee_km":471.49435714364,"semimajor_km":6848.8540122132,"source":"CELESTRAK","updated_at":"2026-05-25T13:38:19.058649Z"}}